Погода в Куимихе

Россия / Архангельская область     61°10′42″N   46°32′35″E
темп.,
°C
ветер,
м/с
пор.,
м/с
влажн.,
%
обл.,
%
осадки,
мм/ч
давл.,
гПа
погр.,
м
11 мая, вт
вт1100:00+5ююз117070 0.0 102910
03:00+4ююз257778 0.0 102985
06:00+7ююз3669100 0.0 1029198
09:00+13юз465099 0.0 1030577
12:00+15юз364791 0.0 1029748
15:00+18юз3546100 0.0 10281101
18:00+17юз256399 0.0 1028137
21:00+12юз238019 0.0 102943
12 мая, ср
ср1200:00+10юз388570 0.0 1029132
03:00+9юз278771 0.0 1030124
06:00+13юз26735 0.0 1030198
09:00+19юз345230 0.0 1030660
12:00+22юз34415 0.0 10281174
15:00+23юз33371 0.0 10281320
18:00+22ююз23515 0.0 1027100
21:00+15ююз22704 0.0 102718
13 мая, чт
чт1300:00+13ююз22770 0.0 102718
03:00+12ю22810 0.0 102725
06:00+15ююз25665 0.0 1027156
09:00+21ююз245132 0.0 1026602
12:00+24ю3544100 0.0 10251638
15:00+24ююз354197 0.0 10232043
18:00+22ююз255172 0.0 1022269
21:00+18ю226182 0.0 102132
14 мая, пт
пт1400:00+14ю278141 0.0 1021124
03:00+14ю288597 0.0 1021153
06:00+17ююв387396 0.0 1019288
09:00+20ю366199 0.3 1018766
12:00+22юз575598 0.0 10171601
15:00+22зюз575514 0.1 10181507
18:00+21з465724 0.0 10171218
21:00+16юз2476100 0.0 101772
15 мая, сб
сб1500:00+15юз267894 0.0 1017120
03:00+13ююз238678 0.0 101854
06:00+16ю247655 0.0 1017187
09:00+22ю355397 0.0 1015864
12:00+24ю4647100 0.0 10141475
15:00+25ю374797 0.0 10121453
18:00+22ююв2564100 0.2 1009123
21:00+20ю41372100 1.5 1008461